Time,TemperatureF,DewpointF,PressureIn,WindDirection,WindDirectionDegrees,WindSpeedMPH,WindSpeedGustMPH,Humidity,HourlyPrecipIn,Conditions,Clouds,dailyrainin,SoftwareType,DateUTC
2013-01-22 00:02:00,11.1,0.7,30.34,SE,125,0.0,0.0,62,0.00,,,0.00,WUHU216DAVISVP2,2013-01-22 06:02:00,
2013-01-22 00:07:00,11.2,0.8,30.33,SE,125,0.0,0.0,62,0.00,,,0.00,WUHU216DAVISVP2,2013-01-22 06:07:00,
2013-01-22 00:12:00,11.2,0.7,30.34,SW,228,0.0,0.0,62,0.00,,,0.00,WUHU216DAVISVP2,2013-01-22 06:12:00,
2013-01-22 00:17:00,11.1,0.7,30.34,WSW,239,0.0,0.0,62,0.00,,,0.00,WUHU216DAVISVP2,2013-01-22 06:17:00,
2013-01-22 00:22:00,11.1,0.7,30.33,WSW,241,0.0,2.0,62,0.00,,,0.00,WUHU216DAVISVP2,2013-01-22 06:22:00,
2013-01-22 00:27:00,11.1,0.7,30.33,WSW,240,0.0,2.0,62,0.00,,,0.00,WUHU216DAVISVP2,2013-01-22 06:27:00,
2013-01-22 00:32:00,11.3,0.8,30.34,West,263,0.0,1.0,62,0.00,,,0.00,WUHU216DAVISVP2,2013-01-22 06:32:00,
2013-01-22 00:37:00,11.4,0.9,30.34,West,263,0.0,1.0,62,0.00,,,0.00,WUHU216DAVISVP2,2013-01-22 06:37:00,
2013-01-22 00:42:00,11.4,0.6,30.34,West,262,0.0,1.0,61,0.00,,,0.00,WUHU216DAVISVP2,2013-01-22 06:42:00,
2013-01-22 00:47:00,11.4,0.9,30.34,WNW,292,0.0,1.0,62,0.00,,,0.00,WUHU216DAVISVP2,2013-01-22 06:47:00,
2013-01-22 00:52:00,11.5,1.0,30.34,West,276,0.0,5.0,62,0.00,,,0.00,WUHU216DAVISVP2,2013-01-22 06:52:00,
2013-01-22 00:57:00,11.5,1.0,30.35,West,267,0.0,5.0,62,0.00,,,0.00,WUHU216DAVISVP2,2013-01-22 06:57:00,
2013-01-22 01:02:00,11.7,1.6,30.35,West,274,2.0,4.0,63,0.00,,,0.00,WUHU216DAVISVP2,2013-01-22 07:02:00,
2013-01-22 01:07:00,11.5,1.0,30.35,WSW,243,0.0,4.0,62,0.00,,,0.00,WUHU216DAVISVP2,2013-01-22 07:07:00,
2013-01-22 01:12:00,11.5,1.0,30.34,NNE,13,1.0,4.0,62,0.00,,,0.00,WUHU216DAVISVP2,2013-01-22 07:12:00,
2013-01-22 01:17:00,11.6,0.8,30.34,NNE,22,0.0,3.0,61,0.00,,,0.00,WUHU216DAVISVP2,2013-01-22 07:17:00,
2013-01-22 01:22:00,11.7,0.9,30.33,NNE,30,0.0,3.0,61,0.00,,,0.00,WUHU216DAVISVP2,2013-01-22 07:22:00,
2013-01-22 01:27:00,11.8,1.0,30.34,NW,318,0.0,2.0,61,0.00,,,0.00,WUHU216DAVISVP2,2013-01-22 07:27:00,
2013-01-22 01:32:00,11.8,0.9,30.34,West,278,0.0,2.0,61,0.00,,,0.00,WUHU216DAVISVP2,2013-01-22 07:32:00,
2013-01-22 01:37:00,11.7,0.9,30.34,NW,307,0.0,3.0,61,0.00,,,0.00,WUHU216DAVISVP2,2013-01-22 07:37:00,
2013-01-22 01:42:00,11.7,1.2,30.34,WSW,248,0.0,3.0,62,0.00,,,0.00,WUHU216DAVISVP2,2013-01-22 07:42:00,
2013-01-22 01:47:00,11.7,1.5,30.34,WSW,257,1.0,3.0,63,0.00,,,0.00,WUHU216DAVISVP2,2013-01-22 07:47:00,
2013-01-22 01:52:00,11.6,1.5,30.34,West,281,0.0,3.0,63,0.00,,,0.00,WUHU216DAVISVP2,2013-01-22 07:52:00,
2013-01-22 01:57:00,11.7,1.9,30.33,NNE,23,0.0,2.0,64,0.00,,,0.00,WUHU216DAVISVP2,2013-01-22 07:57:00,
2013-01-22 02:02:00,11.8,2.3,30.33,NNE,20,1.0,2.0,65,0.00,,,0.00,WUHU216DAVISVP2,2013-01-22 08:02:00,
2013-01-22 02:07:00,11.8,2.3,30.34,North,354,1.0,2.0,65,0.00,,,0.00,WUHU216DAVISVP2,2013-01-22 08:07:00,
2013-01-22 02:12:00,11.8,2.3,30.34,North,7,0.0,2.0,65,0.00,,,0.00,WUHU216DAVISVP2,2013-01-22 08:12:00,
2013-01-22 02:17:00,11.7,2.2,30.34,West,260,2.0,2.0,65,0.00,,,0.00,WUHU216DAVISVP2,2013-01-22 08:17:00,
2013-01-22 02:22:00,11.7,2.2,30.34,WSW,249,0.0,2.0,65,0.00,,,0.00,WUHU216DAVISVP2,2013-01-22 08:22:00,
2013-01-22 02:27:00,11.8,2.7,30.34,West,261,0.0,2.0,66,0.00,,,0.00,WUHU216DAVISVP2,2013-01-22 08:27:00,
2013-01-22 02:32:00,11.8,2.6,30.34,NNW,330,1.0,2.0,66,0.00,,,0.00,WUHU216DAVISVP2,2013-01-22 08:32:00,
2013-01-22 02:37:00,11.7,2.2,30.34,NNW,343,0.0,3.0,65,0.00,,,0.00,WUHU216DAVISVP2,2013-01-22 08:37:00,
2013-01-22 02:42:00,11.7,2.9,30.34,NNW,341,0.0,3.0,67,0.00,,,0.00,WUHU216DAVISVP2,2013-01-22 08:42:00,
2013-01-22 02:47:00,11.8,3.3,30.35,NNW,341,0.0,3.0,68,0.00,,,0.00,WUHU216DAVISVP2,2013-01-22 08:47:00,
2013-01-22 02:52:00,11.7,3.5,30.35,NNW,341,0.0,3.0,69,0.00,,,0.00,WUHU216DAVISVP2,2013-01-22 08:52:00,
2013-01-22 02:57:00,11.5,4.0,30.35,NNW,339,1.0,2.0,71,0.00,,,0.00,WUHU216DAVISVP2,2013-01-22 08:57:00,
2013-01-22 03:02:00,11.4,4.5,30.36,West,271,0.0,2.0,73,0.00,,,0.00,WUHU216DAVISVP2,2013-01-22 09:02:00,
2013-01-22 03:07:00,11.2,4.8,30.35,WSW,255,0.0,2.0,75,0.00,,,0.00,WUHU216DAVISVP2,2013-01-22 09:07:00,
2013-01-22 03:12:00,11.1,5.0,30.34,West,272,0.0,2.0,76,0.00,,,0.00,WUHU216DAVISVP2,2013-01-22 09:12:00,
2013-01-22 03:17:00,11.0,5.5,30.35,NW,326,0.0,1.0,78,0.00,,,0.00,WUHU216DAVISVP2,2013-01-22 09:17:00,
2013-01-22 03:22:00,11.0,5.8,30.34,West,264,0.0,0.0,79,0.00,,,0.00,WUHU216DAVISVP2,2013-01-22 09:22:00,
2013-01-22 03:27:00,10.9,5.9,30.34,West,260,1.0,2.0,80,0.00,,,0.00,WUHU216DAVISVP2,2013-01-22 09:27:00,
2013-01-22 03:32:00,10.7,6.0,30.34,SW,230,0.0,2.0,81,0.00,,,0.00,WUHU216DAVISVP2,2013-01-22 09:32:00,
2013-01-22 03:37:00,10.7,6.3,30.34,West,264,0.0,2.0,82,0.00,,,0.00,WUHU216DAVISVP2,2013-01-22 09:37:00,
2013-01-22 03:42:00,10.7,6.3,30.34,SSW,212,0.0,2.0,82,0.00,,,0.00,WUHU216DAVISVP2,2013-01-22 09:42:00,
2013-01-22 03:47:00,10.6,6.2,30.33,WSW,240,0.0,2.0,82,0.00,,,0.00,WUHU216DAVISVP2,2013-01-22 09:47:00,
2013-01-22 03:52:00,10.7,6.5,30.33,South,190,0.0,0.0,83,0.00,,,0.00,WUHU216DAVISVP2,2013-01-22 09:52:00,
2013-01-22 03:57:00,10.7,6.5,30.33,South,190,0.0,0.0,83,0.00,,,0.00,WUHU216DAVISVP2,2013-01-22 09:57:00,
2013-01-22 04:02:00,10.7,6.5,30.33,South,191,0.0,0.0,83,0.00,,,0.00,WUHU216DAVISVP2,2013-01-22 10:02:00,
2013-01-22 04:07:00,10.7,6.3,30.33,South,190,0.0,0.0,82,0.00,,,0.00,WUHU216DAVISVP2,2013-01-22 10:07:00,
2013-01-22 04:12:00,10.7,6.5,30.33,West,263,0.0,0.0,83,0.00,,,0.00,WUHU216DAVISVP2,2013-01-22 10:12:00,
2013-01-22 04:17:00,10.7,6.5,30.33,WNW,291,0.0,0.0,83,0.00,,,0.00,WUHU216DAVISVP2,2013-01-22 10:17:00,
2013-01-22 04:22:00,10.7,6.5,30.33,NNE,18,0.0,1.0,83,0.00,,,0.00,WUHU216DAVISVP2,2013-01-22 10:22:00,
2013-01-22 04:27:00,10.8,6.6,30.33,NNE,18,1.0,1.0,83,0.00,,,0.00,WUHU216DAVISVP2,2013-01-22 10:27:00,
2013-01-22 04:32:00,10.8,6.7,30.33,NNE,20,0.0,1.0,83,0.00,,,0.00,WUHU216DAVISVP2,2013-01-22 10:32:00,
2013-01-22 04:37:00,10.8,6.7,30.32,NNE,33,1.0,2.0,83,0.00,,,0.00,WUHU216DAVISVP2,2013-01-22 10:37:00,
2013-01-22 04:42:00,10.9,6.7,30.32,NE,53,0.0,3.0,83,0.00,,,0.00,WUHU216DAVISVP2,2013-01-22 10:42:00,
2013-01-22 04:47:00,10.9,6.7,30.32,NE,52,0.0,3.0,83,0.00,,,0.00,WUHU216DAVISVP2,2013-01-22 10:47:00,
2013-01-22 04:52:00,10.9,6.7,30.32,NE,53,0.0,3.0,83,0.00,,,0.00,WUHU216DAVISVP2,2013-01-22 10:52:00,
2013-01-22 04:57:00,10.9,6.7,30.31,ENE,70,0.0,3.0,83,0.00,,,0.00,WUHU216DAVISVP2,2013-01-22 10:57:00,
2013-01-22 05:02:00,11.0,7.1,30.32,SW,221,0.0,0.0,84,0.00,,,0.00,WUHU216DAVISVP2,2013-01-22 11:02:00,
2013-01-22 05:07:00,10.9,7.0,30.32,SW,221,0.0,0.0,84,0.00,,,0.00,WUHU216DAVISVP2,2013-01-22 11:07:00,
2013-01-22 05:12:00,11.1,7.2,30.32,ESE,117,0.0,0.0,84,0.00,,,0.00,WUHU216DAVISVP2,2013-01-22 11:12:00,
2013-01-22 05:17:00,11.1,7.2,30.32,ESE,117,0.0,0.0,84,0.00,,,0.00,WUHU216DAVISVP2,2013-01-22 11:17:00,
2013-01-22 05:22:00,11.1,7.2,30.31,SE,131,0.0,1.0,84,0.00,,,0.00,WUHU216DAVISVP2,2013-01-22 11:22:00,
2013-01-22 05:27:00,11.2,7.3,30.31,SE,132,0.0,1.0,84,0.00,,,0.00,WUHU216DAVISVP2,2013-01-22 11:27:00,
2013-01-22 05:32:00,11.0,6.8,30.31,SE,146,0.0,3.0,83,0.00,,,0.00,WUHU216DAVISVP2,2013-01-22 11:32:00,
2013-01-22 05:37:00,10.9,7.0,30.31,SE,146,0.0,3.0,84,0.00,,,0.00,WUHU216DAVISVP2,2013-01-22 11:37:00,
2013-01-22 05:42:00,11.0,7.1,30.32,SE,146,0.0,3.0,84,0.00,,,0.00,WUHU216DAVISVP2,2013-01-22 11:42:00,
2013-01-22 05:47:00,11.0,7.1,30.32,East,98,0.0,2.0,84,0.00,,,0.00,WUHU216DAVISVP2,2013-01-22 11:47:00,
2013-01-22 05:52:00,11.0,7.1,30.32,East,83,1.0,1.0,84,0.00,,,0.00,WUHU216DAVISVP2,2013-01-22 11:52:00,
2013-01-22 05:57:00,10.9,7.0,30.32,East,99,0.0,1.0,84,0.00,,,0.00,WUHU216DAVISVP2,2013-01-22 11:57:00,
2013-01-22 06:03:00,10.9,7.0,30.32,East,98,0.0,1.0,84,0.00,,,0.00,WUHU216DAVISVP2,2013-01-22 12:03:00,
2013-01-22 06:08:00,11.0,7.1,30.32,East,98,1.0,1.0,84,0.00,,,0.00,WUHU216DAVISVP2,2013-01-22 12:08:00,
2013-01-22 06:13:00,11.0,7.1,30.32,East,99,0.0,1.0,84,0.00,,,0.00,WUHU216DAVISVP2,2013-01-22 12:13:00,
2013-01-22 06:18:00,11.1,7.4,30.32,East,91,0.0,1.0,85,0.00,,,0.00,WUHU216DAVISVP2,2013-01-22 12:18:00,
2013-01-22 06:23:00,11.1,7.4,30.32,East,91,0.0,1.0,85,0.00,,,0.00,WUHU216DAVISVP2,2013-01-22 12:23:00,
2013-01-22 06:28:00,11.1,7.4,30.33,East,90,0.0,1.0,85,0.00,,,0.00,WUHU216DAVISVP2,2013-01-22 12:28:00,
2013-01-22 06:33:00,11.2,7.5,30.33,ESE,108,0.0,1.0,85,0.00,,,0.00,WUHU216DAVISVP2,2013-01-22 12:33:00,
2013-01-22 06:38:00,11.2,7.5,30.33,NE,55,0.0,1.0,85,0.00,,,0.00,WUHU216DAVISVP2,2013-01-22 12:38:00,
2013-01-22 06:43:00,11.2,7.5,30.33,SE,138,0.0,1.0,85,0.00,,,0.00,WUHU216DAVISVP2,2013-01-22 12:43:00,
2013-01-22 06:48:00,11.3,7.6,30.33,SSE,166,0.0,1.0,85,0.00,,,0.00,WUHU216DAVISVP2,2013-01-22 12:48:00,
2013-01-22 06:53:00,11.3,7.6,30.34,SSE,165,0.0,1.0,85,0.00,,,0.00,WUHU216DAVISVP2,2013-01-22 12:53:00,
2013-01-22 06:58:00,11.2,7.5,30.34,East,84,0.0,1.0,85,0.00,,,0.00,WUHU216DAVISVP2,2013-01-22 12:58:00,
2013-01-22 07:03:00,11.1,7.4,30.34,SE,135,0.0,2.0,85,0.00,,,0.00,WUHU216DAVISVP2,2013-01-22 13:03:00,
2013-01-22 07:08:00,11.0,7.3,30.34,SE,135,0.0,2.0,85,0.00,,,0.00,WUHU216DAVISVP2,2013-01-22 13:08:00,
2013-01-22 07:13:00,11.0,7.4,30.34,SSE,155,0.0,1.0,85,0.00,,,0.00,WUHU216DAVISVP2,2013-01-22 13:13:00,
2013-01-22 07:18:00,11.0,7.3,30.35,SE,124,0.0,1.0,85,0.00,,,0.00,WUHU216DAVISVP2,2013-01-22 13:18:00,
2013-01-22 07:23:00,11.0,7.3,30.35,SE,143,0.0,1.0,85,0.00,,,0.00,WUHU216DAVISVP2,2013-01-22 13:23:00,
2013-01-22 07:28:00,11.0,7.3,30.35,ESE,118,0.0,1.0,85,0.00,,,0.00,WUHU216DAVISVP2,2013-01-22 13:28:00,
2013-01-22 07:33:00,11.0,7.3,30.35,ESE,118,0.0,1.0,85,0.00,,,0.00,WUHU216DAVISVP2,2013-01-22 13:33:00,
2013-01-22 07:38:00,11.0,7.3,30.34,ESE,107,0.0,1.0,85,0.00,,,0.00,WUHU216DAVISVP2,2013-01-22 13:38:00,
2013-01-22 07:43:00,10.8,7.1,30.35,ENE,67,0.0,3.0,85,0.00,,,0.00,WUHU216DAVISVP2,2013-01-22 13:43:00,
2013-01-22 07:48:00,10.7,7.0,30.35,SSE,165,0.0,3.0,85,0.00,,,0.00,WUHU216DAVISVP2,2013-01-22 13:48:00,
2013-01-22 07:53:00,10.7,7.0,30.36,NNW,329,0.0,2.0,85,0.00,,,0.00,WUHU216DAVISVP2,2013-01-22 13:53:00,
2013-01-22 07:58:00,10.8,7.1,30.35,SE,146,0.0,2.0,85,0.00,,,0.00,WUHU216DAVISVP2,2013-01-22 13:58:00,
2013-01-22 08:03:00,10.6,7.0,30.35,ENE,65,0.0,3.0,85,0.00,,,0.00,WUHU216DAVISVP2,2013-01-22 14:03:00,
2013-01-22 08:08:00,10.4,6.5,30.36,East,89,0.0,4.0,84,0.00,,,0.00,WUHU216DAVISVP2,2013-01-22 14:08:00,
2013-01-22 08:13:00,10.5,6.9,30.36,South,173,1.0,4.0,85,0.00,,,0.00,WUHU216DAVISVP2,2013-01-22 14:13:00,
2013-01-22 08:18:00,10.6,7.0,30.36,ENE,63,2.0,4.0,85,0.00,,,0.00,WUHU216DAVISVP2,2013-01-22 14:18:00,
2013-01-22 08:23:00,10.7,7.1,30.36,South,188,0.0,4.0,85,0.00,,,0.00,WUHU216DAVISVP2,2013-01-22 14:23:00,
2013-01-22 08:28:00,10.9,7.3,30.36,ESE,111,0.0,2.0,85,0.00,,,0.00,WUHU216DAVISVP2,2013-01-22 14:28:00,
2013-01-22 08:33:00,10.9,7.0,30.36,ESE,117,0.0,2.0,84,0.00,,,0.00,WUHU216DAVISVP2,2013-01-22 14:33:00,
2013-01-22 08:38:00,10.9,7.0,30.36,ENE,73,2.0,4.0,84,0.00,,,0.00,WUHU216DAVISVP2,2013-01-22 14:38:00,
2013-01-22 08:43:00,11.0,7.1,30.35,SE,135,0.0,5.0,84,0.00,,,0.00,WUHU216DAVISVP2,2013-01-22 14:43:00,
2013-01-22 08:48:00,11.0,7.1,30.36,ENE,63,2.0,5.0,84,0.00,,,0.00,WUHU216DAVISVP2,2013-01-22 14:48:00,
2013-01-22 08:53:00,11.0,7.1,30.37,SSE,166,0.0,5.0,84,0.00,,,0.00,WUHU216DAVISVP2,2013-01-22 14:53:00,
2013-01-22 08:58:00,11.4,7.5,30.37,South,181,0.0,4.0,84,0.00,,,0.00,WUHU216DAVISVP2,2013-01-22 14:58:00,
2013-01-22 09:03:00,11.7,7.8,30.37,West,264,0.0,4.0,84,0.00,,,0.00,WUHU216DAVISVP2,2013-01-22 15:03:00,
2013-01-22 09:08:00,11.9,8.0,30.37,NNE,33,0.0,2.0,84,0.00,,,0.00,WUHU216DAVISVP2,2013-01-22 15:08:00,
2013-01-22 09:13:00,11.7,7.5,30.37,ENE,73,0.0,4.0,83,0.00,,,0.00,WUHU216DAVISVP2,2013-01-22 15:13:00,
2013-01-22 09:18:00,11.9,8.0,30.37,SW,215,0.0,4.0,84,0.00,,,0.00,WUHU216DAVISVP2,2013-01-22 15:18:00,
2013-01-22 09:23:00,12.1,7.9,30.37,East,101,0.0,3.0,83,0.00,,,0.00,WUHU216DAVISVP2,2013-01-22 15:23:00,
2013-01-22 09:28:00,12.2,8.0,30.37,ENE,72,5.0,5.0,83,0.00,,,0.00,WUHU216DAVISVP2,2013-01-22 15:28:00,
2013-01-22 09:33:00,12.3,8.1,30.37,SE,136,0.0,5.0,83,0.00,,,0.00,WUHU216DAVISVP2,2013-01-22 15:33:00,
2013-01-22 09:38:00,12.5,8.0,30.37,SE,130,1.0,5.0,82,0.00,,,0.00,WUHU216DAVISVP2,2013-01-22 15:38:00,
2013-01-22 09:43:00,12.6,8.1,30.37,SSE,166,1.0,4.0,82,0.00,,,0.00,WUHU216DAVISVP2,2013-01-22 15:43:00,
2013-01-22 09:48:00,12.8,8.1,30.37,SE,140,3.0,5.0,81,0.00,,,0.00,WUHU216DAVISVP2,2013-01-22 15:48:00,
2013-01-22 09:53:00,12.4,7.4,30.37,ESE,118,2.0,6.0,80,0.00,,,0.00,WUHU216DAVISVP2,2013-01-22 15:53:00,
2013-01-22 09:58:00,12.5,7.8,30.37,SSE,162,0.0,6.0,81,0.00,,,0.00,WUHU216DAVISVP2,2013-01-22 15:58:00,
2013-01-22 10:03:00,12.6,7.9,30.37,SE,128,5.0,6.0,81,0.00,,,0.00,WUHU216DAVISVP2,2013-01-22 16:03:00,
2013-01-22 10:08:00,12.4,7.4,30.37,East,91,2.0,7.0,80,0.00,,,0.00,WUHU216DAVISVP2,2013-01-22 16:08:00,
2013-01-22 10:13:00,12.8,8.1,30.37,SSE,159,2.0,7.0,81,0.00,,,0.00,WUHU216DAVISVP2,2013-01-22 16:13:00,
2013-01-22 10:18:00,12.8,7.8,30.37,SSE,160,4.0,7.0,80,0.00,,,0.00,WUHU216DAVISVP2,2013-01-22 16:18:00,
2013-01-22 10:23:00,12.6,7.3,30.37,South,188,2.0,6.0,79,0.00,,,0.00,WUHU216DAVISVP2,2013-01-22 16:23:00,
2013-01-22 10:28:00,12.8,7.8,30.37,SSE,159,3.0,6.0,80,0.00,,,0.00,WUHU216DAVISVP2,2013-01-22 16:28:00,
2013-01-22 10:33:00,13.0,8.0,30.37,SSE,163,1.0,6.0,80,0.00,,,0.00,WUHU216DAVISVP2,2013-01-22 16:33:00,
2013-01-22 10:38:00,13.4,8.1,30.37,SSE,165,4.0,5.0,79,0.00,,,0.00,WUHU216DAVISVP2,2013-01-22 16:38:00,
2013-01-22 10:43:00,13.6,8.3,30.37,SSE,163,3.0,6.0,79,0.00,,,0.00,WUHU216DAVISVP2,2013-01-22 16:43:00,
2013-01-22 10:48:00,13.9,8.3,30.37,SSE,148,3.0,6.0,78,0.00,,,0.00,WUHU216DAVISVP2,2013-01-22 16:48:00,
2013-01-22 10:53:00,14.1,8.2,30.37,SE,136,3.0,6.0,77,0.00,,,0.00,WUHU216DAVISVP2,2013-01-22 16:53:00,
2013-01-22 10:58:00,14.1,8.2,30.37,SSE,161,5.0,7.0,77,0.00,,,0.00,WUHU216DAVISVP2,2013-01-22 16:58:00,
2013-01-22 11:03:00,14.2,8.3,30.37,SSE,163,4.0,7.0,77,0.00,,,0.00,WUHU216DAVISVP2,2013-01-22 17:03:00,
2013-01-22 11:08:00,14.5,8.9,30.37,SSE,167,2.0,7.0,78,0.00,,,0.00,WUHU216DAVISVP2,2013-01-22 17:08:00,
2013-01-22 11:13:00,14.6,8.7,30.37,SSE,148,4.0,7.0,77,0.00,,,0.00,WUHU216DAVISVP2,2013-01-22 17:13:00,
2013-01-22 11:18:00,14.9,9.0,30.37,SE,138,2.0,7.0,77,0.00,,,0.00,WUHU216DAVISVP2,2013-01-22 17:18:00,
2013-01-22 11:23:00,15.1,8.6,30.37,SSE,165,4.0,7.0,75,0.00,,,0.00,WUHU216DAVISVP2,2013-01-22 17:23:00,
2013-01-22 11:28:00,15.3,9.1,30.36,SSE,150,3.0,6.0,76,0.00,,,0.00,WUHU216DAVISVP2,2013-01-22 17:28:00,
2013-01-22 11:33:00,15.5,9.0,30.36,SSE,159,4.0,6.0,75,0.00,,,0.00,WUHU216DAVISVP2,2013-01-22 17:33:00,
2013-01-22 11:38:00,15.5,9.0,30.36,SSE,148,2.0,6.0,75,0.00,,,0.00,WUHU216DAVISVP2,2013-01-22 17:38:00,
2013-01-22 11:43:00,15.8,9.3,30.36,SE,138,0.0,6.0,75,0.00,,,0.00,WUHU216DAVISVP2,2013-01-22 17:43:00,
2013-01-22 11:49:00,16.6,9.8,30.36,SE,143,0.0,6.0,74,0.00,,,0.00,WUHU216DAVISVP2,2013-01-22 17:49:00,
2013-01-22 11:54:00,16.5,9.1,30.36,South,169,2.0,6.0,72,0.00,,,0.00,WUHU216DAVISVP2,2013-01-22 17:54:00,
2013-01-22 11:59:00,16.6,9.8,30.35,South,181,1.0,6.0,74,0.00,,,0.00,WUHU216DAVISVP2,2013-01-22 17:59:00,
2013-01-22 12:04:00,16.6,8.9,30.35,SSE,155,2.0,6.0,71,0.00,,,0.00,WUHU216DAVISVP2,2013-01-22 18:04:00,
2013-01-22 12:08:00,17.0,10.2,30.34,ESE,111,0.0,6.0,74,0.00,,,0.00,WUHU216DAVISVP2,2013-01-22 18:08:00,
2013-01-22 12:14:00,18.1,10.9,30.34,SE,138,1.0,6.0,73,0.00,,,0.00,WUHU216DAVISVP2,2013-01-22 18:14:00,
2013-01-22 12:19:00,18.0,10.2,30.34,SSE,155,3.0,6.0,71,0.00,,,0.00,WUHU216DAVISVP2,2013-01-22 18:19:00,
2013-01-22 12:24:00,17.6,9.8,30.34,SE,134,5.0,5.0,71,0.00,,,0.00,WUHU216DAVISVP2,2013-01-22 18:24:00,
2013-01-22 12:29:00,17.7,9.9,30.33,SSE,166,1.0,6.0,71,0.00,,,0.00,WUHU216DAVISVP2,2013-01-22 18:29:00,
2013-01-22 12:34:00,18.3,10.8,30.33,ESE,121,4.0,6.0,72,0.00,,,0.00,WUHU216DAVISVP2,2013-01-22 18:34:00,
2013-01-22 12:39:00,18.2,10.1,30.33,SE,142,0.0,6.0,70,0.00,,,0.00,WUHU216DAVISVP2,2013-01-22 18:39:00,
2013-01-22 12:44:00,18.5,10.7,30.32,East,98,2.0,6.0,71,0.00,,,0.00,WUHU216DAVISVP2,2013-01-22 18:44:00,
2013-01-22 12:49:00,18.2,9.5,30.32,East,85,4.0,6.0,68,0.00,,,0.00,WUHU216DAVISVP2,2013-01-22 18:49:00,
2013-01-22 12:54:00,18.4,10.6,30.32,SSW,207,2.0,6.0,71,0.00,,,0.00,WUHU216DAVISVP2,2013-01-22 18:54:00,
2013-01-22 12:59:00,18.9,11.4,30.32,SE,129,0.0,6.0,72,0.00,,,0.00,WUHU216DAVISVP2,2013-01-22 18:59:00,
2013-01-22 13:04:00,19.8,12.6,30.32,North,352,1.0,6.0,73,0.00,,,0.00,WUHU216DAVISVP2,2013-01-22 19:04:00,
2013-01-22 13:09:00,19.8,11.0,30.31,South,187,4.0,6.0,68,0.00,,,0.00,WUHU216DAVISVP2,2013-01-22 19:09:00,
2013-01-22 13:14:00,18.6,10.5,30.31,ESE,121,0.0,6.0,70,0.00,,,0.00,WUHU216DAVISVP2,2013-01-22 19:14:00,
2013-01-22 13:19:00,19.8,12.6,30.31,East,82,1.0,6.0,73,0.00,,,0.00,WUHU216DAVISVP2,2013-01-22 19:19:00,
2013-01-22 13:24:00,20.7,13.1,30.30,SE,135,1.0,6.0,72,0.00,,,0.00,WUHU216DAVISVP2,2013-01-22 19:24:00,
2013-01-22 13:29:00,19.9,11.4,30.30,South,174,3.0,7.0,69,0.00,,,0.00,WUHU216DAVISVP2,2013-01-22 19:29:00,
2013-01-22 13:34:00,20.0,12.5,30.29,SSW,201,2.0,7.0,72,0.00,,,0.00,WUHU216DAVISVP2,2013-01-22 19:34:00,
2013-01-22 13:39:00,20.1,11.3,30.29,SSW,207,4.0,7.0,68,0.00,,,0.00,WUHU216DAVISVP2,2013-01-22 19:39:00,
2013-01-22 13:44:00,19.7,11.2,30.28,SE,139,2.0,7.0,69,0.00,,,0.00,WUHU216DAVISVP2,2013-01-22 19:44:00,
2013-01-22 13:49:00,19.6,11.1,30.28,SSE,150,3.0,7.0,69,0.00,,,0.00,WUHU216DAVISVP2,2013-01-22 19:49:00,
2013-01-22 13:54:00,19.8,11.3,30.28,SSW,211,1.0,7.0,69,0.00,,,0.00,WUHU216DAVISVP2,2013-01-22 19:54:00,
2013-01-22 13:59:00,20.3,13.1,30.28,South,169,5.0,7.0,73,0.00,,,0.00,WUHU216DAVISVP2,2013-01-22 19:59:00,
2013-01-22 14:04:00,20.2,12.7,30.28,West,259,1.0,7.0,72,0.00,,,0.00,WUHU216DAVISVP2,2013-01-22 20:04:00,
2013-01-22 14:09:00,20.4,12.2,30.27,SE,141,4.0,6.0,70,0.00,,,0.00,WUHU216DAVISVP2,2013-01-22 20:09:00,
2013-01-22 14:14:00,20.5,12.0,30.28,SE,141,6.0,7.0,69,0.00,,,0.00,WUHU216DAVISVP2,2013-01-22 20:14:00,
2013-01-22 14:19:00,20.3,11.5,30.27,East,84,4.0,7.0,68,0.00,,,0.00,WUHU216DAVISVP2,2013-01-22 20:19:00,
2013-01-22 14:24:00,20.1,11.6,30.28,NE,53,2.0,7.0,69,0.00,,,0.00,WUHU216DAVISVP2,2013-01-22 20:24:00,
2013-01-22 14:29:00,20.9,12.7,30.27,NNE,27,0.0,7.0,70,0.00,,,0.00,WUHU216DAVISVP2,2013-01-22 20:29:00,
2013-01-22 14:34:00,21.7,12.8,30.27,SSE,158,2.0,7.0,68,0.00,,,0.00,WUHU216DAVISVP2,2013-01-22 20:34:00,
2013-01-22 14:39:00,22.0,14.1,30.27,SSE,162,3.0,7.0,71,0.00,,,0.00,WUHU216DAVISVP2,2013-01-22 20:39:00,
2013-01-22 14:44:00,21.9,13.0,30.27,ESE,121,2.0,7.0,68,0.00,,,0.00,WUHU216DAVISVP2,2013-01-22 20:44:00,
2013-01-22 14:49:00,21.6,12.4,30.27,South,177,1.0,7.0,67,0.00,,,0.00,WUHU216DAVISVP2,2013-01-22 20:49:00,
2013-01-22 14:54:00,21.5,12.3,30.27,SSE,163,2.0,7.0,67,0.00,,,0.00,WUHU216DAVISVP2,2013-01-22 20:54:00,
2013-01-22 14:59:00,22.0,13.8,30.27,ENE,69,0.0,7.0,70,0.00,,,0.00,WUHU216DAVISVP2,2013-01-22 20:59:00,
2013-01-22 15:04:00,22.4,13.5,30.27,ENE,71,3.0,7.0,68,0.00,,,0.00,WUHU216DAVISVP2,2013-01-22 21:04:00,
2013-01-22 15:09:00,22.4,13.2,30.26,SSE,149,2.0,6.0,67,0.00,,,0.00,WUHU216DAVISVP2,2013-01-22 21:09:00,
2013-01-22 15:14:00,22.3,13.3,30.26,SE,139,0.0,6.0,68,0.00,,,0.00,WUHU216DAVISVP2,2013-01-22 21:14:00,
2013-01-22 15:19:00,22.5,13.2,30.26,SSW,203,2.0,6.0,67,0.00,,,0.00,WUHU216DAVISVP2,2013-01-22 21:19:00,
2013-01-22 15:24:00,22.6,13.0,30.25,ESE,117,3.0,6.0,66,0.00,,,0.00,WUHU216DAVISVP2,2013-01-22 21:24:00,
2013-01-22 15:29:00,22.7,13.4,30.25,North,9,1.0,6.0,67,0.00,,,0.00,WUHU216DAVISVP2,2013-01-22 21:29:00,
2013-01-22 15:31:00,22.8,13.2,30.25,South,172,1.0,6.0,66,0.00,,,0.00,WUHU216DAVISVP2,2013-01-22 21:31:00,
2013-01-22 15:36:00,22.4,12.1,30.26,ESE,115,2.0,7.0,64,0.00,,,0.00,WUHU216DAVISVP2,2013-01-22 21:36:00,
2013-01-22 15:41:00,22.4,12.1,30.26,ENE,77,1.0,7.0,64,0.00,,,0.00,WUHU216DAVISVP2,2013-01-22 21:41:00,
2013-01-22 15:46:00,21.5,11.9,30.25,SSE,160,0.0,8.0,66,0.00,,,0.00,WUHU216DAVISVP2,2013-01-22 21:46:00,
2013-01-22 15:51:00,22.1,12.2,30.25,SSW,208,3.0,8.0,65,0.00,,,0.00,WUHU216DAVISVP2,2013-01-22 21:51:00,
2013-01-22 15:56:00,22.5,12.9,30.26,East,82,3.0,7.0,66,0.00,,,0.00,WUHU216DAVISVP2,2013-01-22 21:56:00,
2013-01-22 16:01:00,22.4,12.4,30.26,WSW,257,2.0,7.0,65,0.00,,,0.00,WUHU216DAVISVP2,2013-01-22 22:01:00,
2013-01-22 16:06:00,22.5,12.5,30.25,South,187,0.0,6.0,65,0.00,,,0.00,WUHU216DAVISVP2,2013-01-22 22:06:00,
2013-01-22 16:11:00,23.1,13.1,30.26,East,91,1.0,4.0,65,0.00,,,0.00,WUHU216DAVISVP2,2013-01-22 22:11:00,
2013-01-22 16:16:00,23.5,12.7,30.25,East,91,1.0,6.0,63,0.00,,,0.00,WUHU216DAVISVP2,2013-01-22 22:16:00,
2013-01-22 16:21:00,23.3,12.9,30.26,SSE,159,1.0,6.0,64,0.00,,,0.00,WUHU216DAVISVP2,2013-01-22 22:21:00,
2013-01-22 16:26:00,22.8,12.4,30.25,ESE,118,0.0,6.0,64,0.00,,,0.00,WUHU216DAVISVP2,2013-01-22 22:26:00,
2013-01-22 16:31:00,22.9,13.3,30.25,SW,222,0.0,6.0,66,0.00,,,0.00,WUHU216DAVISVP2,2013-01-22 22:31:00,
2013-01-22 16:36:00,23.1,12.4,30.25,East,83,0.0,3.0,63,0.00,,,0.00,WUHU216DAVISVP2,2013-01-22 22:36:00,
2013-01-22 16:41:00,22.5,12.2,30.25,ESE,108,0.0,3.0,64,0.00,,,0.00,WUHU216DAVISVP2,2013-01-22 22:41:00,
2013-01-22 16:46:00,21.5,11.2,30.25,ENE,63,5.0,5.0,64,0.00,,,0.00,WUHU216DAVISVP2,2013-01-22 22:46:00,
2013-01-22 16:51:00,20.0,10.8,30.25,NE,51,0.0,6.0,67,0.00,,,0.00,WUHU216DAVISVP2,2013-01-22 22:51:00,
2013-01-22 16:56:00,19.6,11.1,30.25,SW,219,1.0,6.0,69,0.00,,,0.00,WUHU216DAVISVP2,2013-01-22 22:56:00,
2013-01-22 17:01:00,19.5,11.3,30.25,East,79,2.0,5.0,70,0.00,,,0.00,WUHU216DAVISVP2,2013-01-22 23:01:00,
2013-01-22 17:06:00,19.3,11.4,30.25,East,81,1.0,5.0,71,0.00,,,0.00,WUHU216DAVISVP2,2013-01-22 23:06:00,
2013-01-22 17:11:00,18.9,11.0,30.25,ESE,103,0.0,3.0,71,0.00,,,0.00,WUHU216DAVISVP2,2013-01-22 23:11:00,
2013-01-22 17:16:00,18.7,11.5,30.25,WSW,239,0.0,4.0,73,0.00,,,0.00,WUHU216DAVISVP2,2013-01-22 23:16:00,
2013-01-22 17:21:00,18.5,11.3,30.25,ESE,120,0.0,4.0,73,0.00,,,0.00,WUHU216DAVISVP2,2013-01-22 23:21:00,
2013-01-22 17:26:00,18.4,11.2,30.25,ESE,105,0.0,3.0,73,0.00,,,0.00,WUHU216DAVISVP2,2013-01-22 23:26:00,
2013-01-22 17:31:00,18.1,11.2,30.25,South,169,0.0,2.0,74,0.00,,,0.00,WUHU216DAVISVP2,2013-01-22 23:31:00,
2013-01-22 17:36:00,17.9,11.0,30.25,SW,232,0.0,2.0,74,0.00,,,0.00,WUHU216DAVISVP2,2013-01-22 23:36:00,
2013-01-22 17:41:00,17.6,11.1,30.25,ENE,75,1.0,2.0,75,0.00,,,0.00,WUHU216DAVISVP2,2013-01-22 23:41:00,
2013-01-22 17:46:00,17.4,10.9,30.25,East,98,1.0,2.0,75,0.00,,,0.00,WUHU216DAVISVP2,2013-01-22 23:46:00,
2013-01-22 17:51:00,17.2,10.7,30.25,SE,141,0.0,2.0,75,0.00,,,0.00,WUHU216DAVISVP2,2013-01-22 23:51:00,
2013-01-22 17:56:00,17.0,10.8,30.25,ENE,61,2.0,3.0,76,0.00,,,0.00,WUHU216DAVISVP2,2013-01-22 23:56:00,
2013-01-22 18:01:00,16.8,10.6,30.25,SE,135,1.0,4.0,76,0.00,,,0.00,WUHU216DAVISVP2,2013-01-23 00:01:00,
2013-01-22 18:06:00,16.7,10.5,30.25,SE,127,0.0,4.0,76,0.00,,,0.00,WUHU216DAVISVP2,2013-01-23 00:06:00,
2013-01-22 18:11:00,16.5,10.6,30.25,South,181,0.0,3.0,77,0.00,,,0.00,WUHU216DAVISVP2,2013-01-23 00:11:00,
2013-01-22 18:16:00,16.3,10.4,30.25,ESE,121,0.0,3.0,77,0.00,,,0.00,WUHU216DAVISVP2,2013-01-23 00:16:00,
2013-01-22 18:21:00,16.3,10.7,30.26,South,186,0.0,2.0,78,0.00,,,0.00,WUHU216DAVISVP2,2013-01-23 00:21:00,
2013-01-22 18:26:00,16.2,10.8,30.25,East,84,0.0,2.0,79,0.00,,,0.00,WUHU216DAVISVP2,2013-01-23 00:26:00,
2013-01-22 18:31:00,16.1,10.5,30.25,WNW,291,0.0,2.0,78,0.00,,,0.00,WUHU216DAVISVP2,2013-01-23 00:31:00,
2013-01-22 18:36:00,16.0,10.4,30.26,North,11,0.0,2.0,78,0.00,,,0.00,WUHU216DAVISVP2,2013-01-23 00:36:00,
2013-01-22 18:41:00,15.9,10.5,30.26,SW,217,0.0,2.0,79,0.00,,,0.00,WUHU216DAVISVP2,2013-01-23 00:41:00,
2013-01-22 18:46:00,15.8,10.4,30.26,NNW,346,0.0,2.0,79,0.00,,,0.00,WUHU216DAVISVP2,2013-01-23 00:46:00,
2013-01-22 18:51:00,15.6,10.3,30.26,NNE,32,0.0,2.0,79,0.00,,,0.00,WUHU216DAVISVP2,2013-01-23 00:51:00,
2013-01-22 18:56:00,15.4,10.1,30.26,East,98,0.0,2.0,79,0.00,,,0.00,WUHU216DAVISVP2,2013-01-23 00:56:00,
2013-01-22 19:01:00,15.3,10.0,30.26,ESE,117,0.0,2.0,79,0.00,,,0.00,WUHU216DAVISVP2,2013-01-23 01:01:00,
2013-01-22 19:06:00,15.2,9.9,30.25,SE,134,0.0,2.0,79,0.00,,,0.00,WUHU216DAVISVP2,2013-01-23 01:06:00,
2013-01-22 19:11:00,15.1,9.8,30.26,East,101,0.0,2.0,79,0.00,,,0.00,WUHU216DAVISVP2,2013-01-23 01:11:00,
2013-01-22 19:16:00,14.9,9.6,30.25,SSE,151,0.0,1.0,79,0.00,,,0.00,WUHU216DAVISVP2,2013-01-23 01:16:00,
2013-01-22 19:21:00,14.9,9.8,30.25,SSE,161,0.0,1.0,80,0.00,,,0.00,WUHU216DAVISVP2,2013-01-23 01:21:00,
2013-01-22 19:26:00,14.8,9.7,30.25,SE,129,0.0,1.0,80,0.00,,,0.00,WUHU216DAVISVP2,2013-01-23 01:26:00,
2013-01-22 19:31:00,14.8,9.7,30.25,ESE,118,0.0,1.0,80,0.00,,,0.00,WUHU216DAVISVP2,2013-01-23 01:31:00,
2013-01-22 19:36:00,14.8,9.7,30.25,ESE,117,0.0,1.0,80,0.00,,,0.00,WUHU216DAVISVP2,2013-01-23 01:36:00,
2013-01-22 19:41:00,14.7,9.6,30.25,ESE,117,0.0,1.0,80,0.00,,,0.00,WUHU216DAVISVP2,2013-01-23 01:41:00,
2013-01-22 19:46:00,14.5,9.5,30.25,ESE,117,0.0,1.0,80,0.00,,,0.00,WUHU216DAVISVP2,2013-01-23 01:46:00,
2013-01-22 19:51:00,14.5,9.5,30.25,ESE,114,0.0,1.0,80,0.00,,,0.00,WUHU216DAVISVP2,2013-01-23 01:51:00,
2013-01-22 19:56:00,14.4,9.4,30.25,SSE,162,0.0,1.0,80,0.00,,,0.00,WUHU216DAVISVP2,2013-01-23 01:56:00,
2013-01-22 20:01:00,14.3,9.3,30.25,ESE,120,0.0,1.0,80,0.00,,,0.00,WUHU216DAVISVP2,2013-01-23 02:01:00,
2013-01-22 20:06:00,14.3,9.5,30.25,SE,141,0.0,1.0,81,0.00,,,0.00,WUHU216DAVISVP2,2013-01-23 02:06:00,
2013-01-22 20:11:00,14.3,9.3,30.25,SE,141,0.0,1.0,80,0.00,,,0.00,WUHU216DAVISVP2,2013-01-23 02:11:00,
2013-01-22 20:16:00,14.1,9.3,30.25,SE,142,0.0,1.0,81,0.00,,,0.00,WUHU216DAVISVP2,2013-01-23 02:16:00,
2013-01-22 20:21:00,14.1,9.3,30.25,SE,129,0.0,1.0,81,0.00,,,0.00,WUHU216DAVISVP2,2013-01-23 02:21:00,
2013-01-22 20:26:00,14.1,9.3,30.25,ESE,120,0.0,2.0,81,0.00,,,0.00,WUHU216DAVISVP2,2013-01-23 02:26:00,
2013-01-22 20:31:00,14.0,9.2,30.25,ESE,120,0.0,2.0,81,0.00,,,0.00,WUHU216DAVISVP2,2013-01-23 02:31:00,
2013-01-22 20:36:00,13.9,9.1,30.25,SE,136,0.0,1.0,81,0.00,,,0.00,WUHU216DAVISVP2,2013-01-23 02:36:00,
2013-01-22 20:41:00,13.9,9.1,30.24,SE,141,0.0,3.0,81,0.00,,,0.00,WUHU216DAVISVP2,2013-01-23 02:41:00,
2013-01-22 20:46:00,13.9,9.1,30.24,SE,129,0.0,3.0,81,0.00,,,0.00,WUHU216DAVISVP2,2013-01-23 02:46:00,
2013-01-22 20:51:00,13.8,9.0,30.24,SE,127,0.0,3.0,81,0.00,,,0.00,WUHU216DAVISVP2,2013-01-23 02:51:00,
2013-01-22 20:56:00,13.9,9.4,30.24,SSE,151,2.0,3.0,82,0.00,,,0.00,WUHU216DAVISVP2,2013-01-23 02:56:00,
2013-01-22 21:01:00,13.9,9.1,30.24,SSE,153,0.0,2.0,81,0.00,,,0.00,WUHU216DAVISVP2,2013-01-23 03:01:00,
2013-01-22 21:06:00,13.9,9.4,30.23,SE,131,0.0,2.0,82,0.00,,,0.00,WUHU216DAVISVP2,2013-01-23 03:06:00,
2013-01-22 21:12:00,13.7,9.2,30.24,SE,131,0.0,2.0,82,0.00,,,0.00,WUHU216DAVISVP2,2013-01-23 03:12:00,
2013-01-22 21:17:00,13.7,9.2,30.24,SE,131,0.0,2.0,82,0.00,,,0.00,WUHU216DAVISVP2,2013-01-23 03:17:00,
2013-01-22 21:22:00,13.7,9.2,30.24,SE,131,0.0,1.0,82,0.00,,,0.00,WUHU216DAVISVP2,2013-01-23 03:22:00,
2013-01-22 21:27:00,13.6,9.1,30.24,SE,131,0.0,1.0,82,0.00,,,0.00,WUHU216DAVISVP2,2013-01-23 03:27:00,
2013-01-22 21:32:00,13.6,9.1,30.24,North,352,0.0,2.0,82,0.00,,,0.00,WUHU216DAVISVP2,2013-01-23 03:32:00,
2013-01-22 21:37:00,13.6,9.1,30.24,ESE,110,0.0,2.0,82,0.00,,,0.00,WUHU216DAVISVP2,2013-01-23 03:37:00,
2013-01-22 21:42:00,13.6,9.1,30.24,ESE,114,0.0,1.0,82,0.00,,,0.00,WUHU216DAVISVP2,2013-01-23 03:42:00,
2013-01-22 21:47:00,13.6,9.1,30.25,ESE,111,0.0,1.0,82,0.00,,,0.00,WUHU216DAVISVP2,2013-01-23 03:47:00,
2013-01-22 21:52:00,13.5,9.0,30.24,SE,136,0.0,2.0,82,0.00,,,0.00,WUHU216DAVISVP2,2013-01-23 03:52:00,
2013-01-22 21:57:00,13.6,9.1,30.24,SE,142,1.0,2.0,82,0.00,,,0.00,WUHU216DAVISVP2,2013-01-23 03:57:00,
2013-01-22 22:02:00,13.6,9.1,30.24,SSE,148,1.0,2.0,82,0.00,,,0.00,WUHU216DAVISVP2,2013-01-23 04:02:00,
2013-01-22 22:07:00,13.7,9.2,30.24,SSE,148,1.0,3.0,82,0.00,,,0.00,WUHU216DAVISVP2,2013-01-23 04:07:00,
2013-01-22 22:12:00,13.9,9.4,30.23,SSE,163,2.0,5.0,82,0.00,,,0.00,WUHU216DAVISVP2,2013-01-23 04:12:00,
2013-01-22 22:17:00,14.0,9.2,30.24,SE,135,1.0,5.0,81,0.00,,,0.00,WUHU216DAVISVP2,2013-01-23 04:17:00,
2013-01-22 22:22:00,14.0,9.2,30.24,SE,124,0.0,5.0,81,0.00,,,0.00,WUHU216DAVISVP2,2013-01-23 04:22:00,
2013-01-22 22:27:00,14.0,9.2,30.24,SE,127,1.0,4.0,81,0.00,,,0.00,WUHU216DAVISVP2,2013-01-23 04:27:00,
2013-01-22 22:32:00,14.0,9.0,30.24,SE,127,1.0,3.0,80,0.00,,,0.00,WUHU216DAVISVP2,2013-01-23 04:32:00,
2013-01-22 22:37:00,14.0,9.0,30.24,SE,142,0.0,3.0,80,0.00,,,0.00,WUHU216DAVISVP2,2013-01-23 04:37:00,
2013-01-22 22:42:00,13.9,9.1,30.24,SE,145,1.0,3.0,81,0.00,,,0.00,WUHU216DAVISVP2,2013-01-23 04:42:00,
2013-01-22 22:47:00,13.9,8.9,30.24,SSE,148,1.0,3.0,80,0.00,,,0.00,WUHU216DAVISVP2,2013-01-23 04:47:00,
2013-01-22 22:52:00,13.9,8.9,30.24,East,87,2.0,4.0,80,0.00,,,0.00,WUHU216DAVISVP2,2013-01-23 04:52:00,
2013-01-22 22:57:00,14.0,9.0,30.24,ESE,110,3.0,4.0,80,0.00,,,0.00,WUHU216DAVISVP2,2013-01-23 04:57:00,
2013-01-22 23:00:00,14.0,9.0,30.24,ESE,109,0.0,4.0,80,0.00,,,0.00,WUHU216DAVISVP2,2013-01-23 05:00:00,
2013-01-22 23:01:00,13.9,8.9,30.24,ESE,109,0.0,4.0,80,0.00,,,0.00,WUHU216DAVISVP2,2013-01-23 05:01:00,
2013-01-22 23:03:00,13.9,8.9,30.24,SE,125,0.0,4.0,80,0.00,,,0.00,WUHU216DAVISVP2,2013-01-23 05:03:00,
2013-01-22 23:08:00,13.8,8.8,30.24,South,188,0.0,4.0,80,0.00,,,0.00,WUHU216DAVISVP2,2013-01-23 05:08:00,
2013-01-22 23:13:00,13.8,9.0,30.24,SW,224,0.0,4.0,81,0.00,,,0.00,WUHU216DAVISVP2,2013-01-23 05:13:00,
2013-01-22 23:18:00,13.7,8.9,30.24,SE,141,0.0,4.0,81,0.00,,,0.00,WUHU216DAVISVP2,2013-01-23 05:18:00,
2013-01-22 23:23:00,13.6,8.8,30.24,SSE,155,2.0,4.0,81,0.00,,,0.00,WUHU216DAVISVP2,2013-01-23 05:23:00,
2013-01-22 23:28:00,13.6,8.6,30.24,SE,133,1.0,3.0,80,0.00,,,0.00,WUHU216DAVISVP2,2013-01-23 05:28:00,
2013-01-22 23:33:00,13.6,8.6,30.24,SSE,151,0.0,3.0,80,0.00,,,0.00,WUHU216DAVISVP2,2013-01-23 05:33:00,
2013-01-22 23:38:00,13.5,8.5,30.24,SSE,151,1.0,3.0,80,0.00,,,0.00,WUHU216DAVISVP2,2013-01-23 05:38:00,
2013-01-22 23:43:00,13.5,8.7,30.24,SE,141,2.0,3.0,81,0.00,,,0.00,WUHU216DAVISVP2,2013-01-23 05:43:00,
2013-01-22 23:48:00,13.5,8.5,30.24,SE,129,1.0,3.0,80,0.00,,,0.00,WUHU216DAVISVP2,2013-01-23 05:48:00,
2013-01-22 23:53:00,13.5,8.7,30.23,SSE,156,1.0,4.0,81,0.00,,,0.00,WUHU216DAVISVP2,2013-01-23 05:53:00,
2013-01-22 23:58:00,13.5,8.7,30.24,South,179,0.0,4.0,81,0.00,,,0.00,WUHU216DAVISVP2,2013-01-23 05:58:00,